[[{"header":{"parameterUnit":"m.s-1","parameterCategory":1,"la1":30.2992,"la2":30.254,"lo1":-89.0895,"lo2":-89.0443,"dy":0.0025,"dx":0.0025,"nx":19,"ny":19,"refTime":"2026-03-08T03:00:00:Z","depth":0,"parameterNumber":2,"parameterNumberName":"U-component_of_WINDS"},"data":[0,0,0,-1.3364,-1.3365,-1.3417,-1.3417,-1.3477,-1.3478,0,0,0,0,0,0,0,0,0,0,0,-1.3346,-1.3346,-1.3364,-1.3365,-1.3417,-1.3417,-1.3477,-1.3478,0,0,0,0,0,0,0,0,0,0,0,-1.3345,-1.3346,-1.3346,-1.3365,-1.3417,-1.3417,-1.3477,-1.344,0,0,0,0,0,0,0,0,0,0,-1.3391,-1.3371,-1.3346,-1.3346,-1.3366,-1.3417,-1.3417,-1.3438,-1.3442,-1.3452,0,-1.3459,0,-1.3469,-1.3481,-1.3482,0,0,0,-1.3367,-1.3368,-1.3384,-1.3346,-1.3366,-1.3416,-1.3394,-1.3441,-1.3445,-1.3457,-1.346,-1.3462,-1.347,-1.3482,-1.3482,-1.3527,-1.3527,0,0,-1.3365,-1.3353,-1.3381,-1.3387,-1.3379,-1.3392,-1.3396,-1.3444,-1.3446,-1.346,-1.3464,-1.3471,-1.3482,-1.3483,-1.3527,-1.3527,0,0,0,-1.3355,-1.3351,-1.3367,-1.3384,-1.3394,-1.3394,-1.3398,-1.3444,-1.345,-1.3465,-1.3472,-1.3483,-1.3483,-1.3527,-1.3527,-1.352,0,0,0,-1.3353,-1.3346,-1.3365,-1.3359,-1.3393,-1.342,-1.3397,-1.3447,-1.3453,-1.3472,-1.3483,-1.3484,-1.3527,-1.3527,-1.352,-1.3519,0,0,0,-1.3343,-1.3344,-1.3351,-1.3358,-1.338,-1.3419,-1.3428,-1.3448,-1.3457,-1.3482,-1.3484,-1.3527,-1.3527,-1.352,-1.3519,-1.3526,0,0,0,-1.333,-1.3345,-1.3351,-1.3371,-1.338,-1.3415,-1.3428,-1.3455,-1.3476,-1.3483,-1.3527,-1.3527,-1.352,-1.3519,-1.3526,-1.3531,-1.3531,0,0,-1.3343,-1.3346,-1.3359,-1.3365,-1.3397,-1.3408,-1.3438,-1.3468,-1.3481,-1.3511,-1.3512,-1.352,-1.3519,-1.3526,-1.3541,-1.3541,0,0,0,-1.3359,-1.3368,-1.3379,-1.3397,-1.342,-1.3439,-1.3465,-1.3476,-1.3501,-1.3494,-1.3526,-1.3525,-1.353,-1.3533,-1.3533,-1.3538,-1.3528,-1.3528,-1.3528,-1.3362,-1.3377,-1.3398,-1.3419,-1.3437,-1.3463,-1.3478,-1.3497,-1.3508,-1.3515,-1.3524,-1.3531,-1.3533,-1.3533,-1.3538,-1.3528,-1.3528,-1.3528,-1.3528,-1.3382,-1.3396,-1.3409,-1.3434,-1.3449,-1.3471,-1.3496,-1.3502,-1.3524,-1.3526,-1.3531,-1.353,-1.3534,-1.3538,-1.3527,-1.3527,-1.3527,-1.3527,-1.3527,-1.3385,-1.3394,-1.3406,-1.3434,-1.3453,-1.3474,-1.3493,-1.3507,-1.3521,-1.3526,-1.3536,-1.3536,-1.3537,-1.3529,-1.3529,-1.353,-1.353,-1.353,-1.353,-1.3382,-1.3396,-1.3411,-1.3435,-1.3448,-1.3467,-1.3493,-1.3506,-1.3524,-1.3533,-1.3533,-1.3542,-1.3531,-1.3528,-1.353,-1.353,-1.353,-1.353,-1.353,-1.3396,-1.3395,-1.3418,-1.343,-1.3459,-1.3477,-1.3494,-1.352,-1.3533,-1.3542,-1.355,-1.354,-1.3544,-1.3544,-1.3541,-1.3547,-1.3547,-1.3547,-1.3547,-1.3398,-1.3401,-1.3427,-1.3446,-1.3467,-1.3484,-1.3509,-1.3529,-1.3549,-1.3558,-1.3559,-1.3557,-1.3556,-1.3561,-1.356,-1.3558,-1.3568,-1.3568,-1.3568,-1.3406,-1.3412,-1.3431,-1.345,-1.3473,-1.3492,-1.3516,-1.3538,-1.3561,-1.3569,-1.3565,-1.3564,-1.356,-1.3559,-1.3566,-1.3565,-1.3561,0,0]},{"header":{"parameterUnit":"m.s-1","parameterCategory":1,"la1":30.2992,"la2":30.254,"lo1":-89.0895,"lo2":-89.0443,"dy":0.0025,"dx":0.0025,"nx":19,"ny":19,"refTime":"2026-03-08T03:00:00:Z","depth":0,"parameterNumber":3,"parameterNumberName":"V-component_of_WINDS"},"data":[0,0,0,1.6105,1.6107,1.6192,1.6193,1.6296,1.6297,0,0,0,0,0,0,0,0,0,0,0,1.6076,1.6077,1.6105,1.6107,1.6192,1.6193,1.6296,1.6297,0,0,0,0,0,0,0,0,0,0,0,1.6076,1.6077,1.6077,1.6107,1.6192,1.6193,1.6296,1.6233,0,0,0,0,0,0,0,0,0,0,1.6151,1.6121,1.6076,1.6077,1.6108,1.6192,1.6193,1.623,1.6237,1.6255,0,1.627,0,1.6285,1.6303,1.6304,0,0,0,1.6109,1.6115,1.6142,1.6077,1.6108,1.6192,1.6154,1.6234,1.6242,1.6264,1.6271,1.6275,1.6287,1.6304,1.6304,1.6401,1.6401,0,0,1.6104,1.6089,1.6136,1.6147,1.6133,1.6152,1.6157,1.6239,1.6246,1.6272,1.6278,1.6288,1.6305,1.6305,1.64,1.6401,0,0,0,1.6089,1.6086,1.6111,1.6142,1.6158,1.6154,1.616,1.6242,1.6252,1.6279,1.629,1.6305,1.6306,1.64,1.6401,1.6405,0,0,0,1.6086,1.6077,1.6108,1.61,1.6156,1.6201,1.6162,1.6246,1.6256,1.6289,1.6305,1.6307,1.64,1.64,1.6404,1.6409,0,0,0,1.6072,1.6076,1.6087,1.6099,1.6135,1.62,1.6214,1.6248,1.6262,1.6304,1.6308,1.6399,1.64,1.6403,1.6408,1.6432,0,0,0,1.6051,1.6088,1.6087,1.6131,1.6135,1.6202,1.6214,1.6265,1.6301,1.6306,1.64,1.6401,1.6403,1.6407,1.6431,1.6451,1.6457,0,0,1.6089,1.6092,1.6119,1.6121,1.6185,1.619,1.6255,1.6301,1.6318,1.6372,1.6375,1.6404,1.6408,1.6432,1.6495,1.65,0,0,0,1.6126,1.6146,1.6166,1.6201,1.6238,1.627,1.6309,1.6326,1.6373,1.6343,1.6419,1.6421,1.6436,1.6446,1.645,1.6465,1.6404,1.6404,1.6404,1.6159,1.6179,1.6227,1.6259,1.6292,1.6332,1.6361,1.6391,1.6401,1.6418,1.6435,1.6471,1.6482,1.6485,1.65,1.6446,1.6446,1.6446,1.6446,1.6217,1.625,1.6263,1.6315,1.6336,1.6379,1.6419,1.6425,1.6469,1.6459,1.6473,1.6463,1.649,1.6504,1.6446,1.6446,1.6446,1.6446,1.6446,1.6242,1.6262,1.6283,1.6336,1.6374,1.6404,1.6446,1.6463,1.648,1.6494,1.6515,1.6515,1.6518,1.6502,1.6502,1.6502,1.6502,1.6503,1.6503,1.6261,1.6285,1.6318,1.6362,1.6387,1.6422,1.6463,1.6488,1.6521,1.653,1.6531,1.654,1.6488,1.6476,1.6505,1.6504,1.6504,1.6504,1.6504,1.6316,1.6306,1.6358,1.6384,1.6437,1.6475,1.6497,1.6547,1.657,1.659,1.6597,1.6555,1.6559,1.6556,1.6546,1.6591,1.6591,1.6591,1.6591,1.6338,1.6342,1.64,1.644,1.6481,1.6506,1.6565,1.6597,1.6629,1.6645,1.6641,1.6628,1.6624,1.6631,1.6626,1.6617,1.6679,1.6679,1.6679,1.6374,1.6383,1.643,1.6462,1.6505,1.6542,1.6598,1.6643,1.6677,1.6683,1.6658,1.6655,1.6635,1.6627,1.6634,1.6626,1.6611,0,0]}]]